DateTimeUTC,F1_A11,F1_S11,BsB_S11,BsG_S11,BsR_S11,BbsB_S11,BbsG_S11,BbsR_S11,BaB_A11,BaG_A11,BaR_A11,Tu_S11,T_S11,Uu_S11,U_S11,P_S11,T1_A11
2021-09-20T08:00:00Z,00000200,21000000,,,,,,,-000.11,-000.07,-000.22,17.8,25.4,,00.0,0655.7,31.0
2021-09-20T08:01:00Z,00000200,21000000,,,,,,,-000.16,-000.12,0000.23,17.8,25.4,,00.0,0655.7,31.0
2021-09-20T08:02:00Z,00000200,21000000,,,,,,,0000.24,0000.59,0000.09,17.8,25.4,,00.0,0655.7,31.0
2021-09-20T08:03:00Z,00000200,61000000,,,,,,,0000.31,0000.07,0000.33,17.8,25.4,,00.0,0655.7,31.0
2021-09-20T08:04:00Z,00000200,41000000,-000.39,-000.22,-000.12,-000.42,0000.32,-000.23,0000.40,0000.46,-000.08,18.3,25.3,,00.0,0656.7,31.1
2021-09-20T08:05:00Z,00000200,01000000,0000.46,0000.08,-000.16,-000.23,-000.01,-000.01,-000.18,-000.13,0000.17,18.5,25.3,,00.0,0656.8,31.1
2021-09-20T08:06:00Z,00000200,01000000,0000.82,-000.19,-000.52,0000.10,-000.15,-000.11,-000.13,0000.20,0000.00,18.5,25.3,,00.0,0656.8,31.1
2021-09-20T08:07:00Z,00000200,01000000,0000.70,-000.30,-000.32,0000.61,-000.11,-000.03,-000.19,-000.70,-000.13,18.6,25.3,,00.0,0656.8,31.1
2021-09-20T08:08:00Z,00000200,01000000,0000.17,0000.07,-000.24,0000.29,-000.06,-000.02,0000.17,0000.11,-000.12,18.5,25.3,,00.0,0656.8,31.1
2021-09-20T08:09:00Z,00000200,01000000,0000.23,0000.06,0000.03,0001.13,-000.26,0000.33,-000.43,-000.08,0000.19,18.5,25.3,,00.0,0656.7,31.0
2021-09-20T08:10:00Z,00000200,01000000,0000.25,-000.10,-000.29,0000.27,0000.10,-000.23,0000.34,-000.01,-000.21,18.4,25.2,,00.0,0656.8,31.0
2021-09-20T08:11:00Z,00000200,01000000,0000.69,-000.02,0000.19,0000.79,0000.03,0000.16,-000.10,0000.20,-000.11,18.3,25.2,,00.0,0656.8,31.0
2021-09-20T08:12:00Z,00000200,01000000,0000.41,-000.16,-000.31,0000.60,0000.13,-000.25,0000.09,0000.08,0000.02,18.3,25.1,,00.0,0656.7,31.0
2021-09-20T08:13:00Z,00000200,01000000,-000.29,-000.10,-000.18,0000.29,0000.03,0000.07,-000.20,-000.17,0000.02,18.2,25.1,,00.0,0656.7,31.0
2021-09-20T08:14:00Z,00000200,01000000,0000.75,-000.02,0000.09,0000.57,0000.03,0000.00,0000.38,-000.00,-000.00,18.2,25.1,,00.0,0656.7,31.0
2021-09-20T08:15:00Z,00000200,01000000,0000.94,0000.15,-000.02,0000.38,0000.04,-000.40,0000.36,0000.57,0000.66,18.1,25.0,,00.0,0656.7,31.0
2021-09-20T08:16:00Z,00000200,01000000,0000.21,0000.08,-000.30,-000.14,0000.24,-000.31,-000.13,-000.57,-000.27,18.2,25.0,,00.0,0656.7,31.0
2021-09-20T08:17:00Z,00000200,01000000,-000.30,-000.15,0000.07,0000.21,-000.13,-000.01,0000.38,0000.66,0000.27,18.2,25.1,,00.0,0656.7,31.0
2021-09-20T08:18:00Z,00000200,01000000,0000.76,-000.07,-000.14,0000.17,-000.06,-000.16,-000.22,0000.05,-000.16,18.3,25.1,,00.0,0656.7,31.0
2021-09-20T08:19:00Z,00000200,01000000,0000.52,-000.10,0000.12,-000.20,-000.17,-000.06,0000.16,0000.32,0000.50,18.4,25.1,,00.0,0656.8,31.0
2021-09-20T08:20:00Z,00000200,01000000,0000.51,0000.16,-000.01,-000.20,0000.07,-000.18,-000.16,-000.39,-000.31,18.5,25.2,,00.0,0656.8,31.1
2021-09-20T08:21:00Z,00000200,01000000,0000.27,-000.11,0000.06,0000.18,0000.17,-000.06,-000.23,0000.29,0000.01,18.6,25.2,,00.0,0656.7,31.1
2021-09-20T08:22:00Z,00000200,01000000,-000.26,0000.05,-000.19,0000.17,0000.18,0000.05,-000.02,-000.47,-000.02,18.6,25.2,,00.0,0656.7,31.1
2021-09-20T08:23:00Z,00000200,01000000,0000.09,0000.00,-000.12,0000.04,-000.18,0000.38,0000.29,0000.03,0000.05,18.6,25.3,,00.0,0656.7,31.0
2021-09-20T08:24:00Z,00000200,01000000,-000.16,-000.14,-000.03,0000.68,0000.36,0000.06,-000.16,-000.03,-000.36,18.5,25.2,,00.0,0656.7,31.0
2021-09-20T08:25:00Z,00000200,01000000,-000.09,0000.26,0000.29,0000.35,0000.24,-000.20,0000.01,0000.41,0000.35,18.5,25.2,,00.0,0656.7,31.0
2021-09-20T08:26:00Z,00000200,01000000,0000.19,0000.22,-000.07,0000.19,-000.13,-000.05,0000.17,-000.26,-000.12,18.4,25.2,,00.0,0656.7,31.0
2021-09-20T08:27:00Z,00000200,01000000,0000.08,-000.14,-000.03,0000.21,-000.14,-000.06,0000.17,-000.03,0000.21,18.3,25.1,,00.0,0656.7,31.0
2021-09-20T08:28:00Z,00000200,01000000,0001.08,-000.00,0000.12,0000.39,0000.05,0000.19,0000.31,0000.39,0000.24,18.2,25.1,,00.0,0656.7,31.0
2021-09-20T08:29:00Z,00000200,01000000,-000.03,-000.17,-000.35,0000.03,0000.04,-000.25,0000.19,0000.37,0000.14,18.2,25.0,,00.0,0656.7,31.0
2021-09-20T08:30:00Z,00000200,01000000,0000.41,-000.14,0000.01,0000.65,-000.21,-000.07,0000.34,-000.13,-000.20,18.2,25.0,,00.0,0656.7,31.0
2021-09-20T08:31:00Z,00000200,01000000,-000.15,0000.14,-000.18,0000.43,0000.14,0000.06,0000.50,0000.84,0000.83,18.2,25.0,,00.0,0656.7,31.0
2021-09-20T08:32:00Z,00000200,01000000,0000.95,0000.19,-000.09,0000.00,-000.05,-000.03,-000.14,0000.19,0000.08,18.3,25.0,,00.0,0656.7,31.0
2021-09-20T08:33:00Z,00000200,01000000,0001.70,0001.04,0000.33,0000.37,0000.39,-000.28,0003.61,0002.99,0002.41,18.4,25.1,,00.0,0656.7,31.1
2021-09-20T08:34:00Z,00000200,01000000,0000.74,0000.71,0000.20,0000.53,0000.01,0000.06,-001.77,-002.47,-001.36,18.5,25.1,,00.0,0656.7,31.0
2021-09-20T08:35:00Z,00000200,01000000,0000.73,0000.23,0000.25,-000.08,0000.33,0000.05,-000.13,0000.35,-000.10,18.6,25.2,,00.0,0656.7,31.1
2021-09-20T08:36:00Z,00000200,01000000,0000.63,-000.12,-000.13,0000.84,-000.20,-000.05,0000.08,0000.35,0000.29,18.7,25.2,,00.0,0656.7,31.1
2021-09-20T08:37:00Z,00000200,01000000,-000.05,0000.08,0000.00,-000.13,-000.02,-000.15,-000.04,0000.00,-000.24,18.7,25.3,,00.0,0656.8,31.1
2021-09-20T08:38:00Z,00000200,01000000,0000.38,-000.14,-000.17,0000.93,0000.21,0000.03,0000.38,0000.47,0000.14,18.7,25.3,,00.0,0656.7,31.1
2021-09-20T08:39:00Z,00000200,01000000,0001.52,0000.79,0000.61,0000.22,0000.03,0000.41,0000.56,0000.24,0000.54,18.7,25.3,,00.0,0656.7,31.1
2021-09-20T08:40:00Z,00000200,01000000,0002.35,0001.70,0001.08,0000.15,0000.07,-000.03,0000.61,0000.99,0000.27,18.6,25.3,,00.0,0656.7,31.1
2021-09-20T08:41:00Z,00000200,01000000,0001.84,0000.85,0000.91,0000.78,0000.30,0000.26,0000.40,-000.36,0000.10,18.6,25.2,,00.0,0656.7,31.0
2021-09-20T08:42:00Z,00000200,01000000,0002.73,0001.58,0000.66,0000.86,0000.16,0000.21,0000.87,0001.07,0000.80,18.5,25.2,,00.0,0656.7,31.0
2021-09-20T08:43:00Z,00000200,01000000,0001.81,0000.49,0000.52,0000.21,0000.22,-000.29,0000.29,-000.10,0000.33,18.4,25.1,,00.0,0656.7,31.0
2021-09-20T08:44:00Z,00000200,01000000,0000.94,-000.00,-000.03,0000.54,0000.26,-000.19,0000.16,0000.39,-000.03,18.3,25.1,,00.0,0656.7,31.0
2021-09-20T08:45:00Z,00000200,01000000,0000.12,-000.01,-000.23,0000.37,0000.15,0000.05,-000.21,-000.04,0000.08,18.3,25.1,,00.0,0656.7,31.0
2021-09-20T08:46:00Z,00000200,01000000,-000.20,-000.16,0000.10,0000.72,-000.06,-000.04,0000.10,0000.75,0000.01,18.4,25.1,,00.0,0656.8,31.0
2021-09-20T08:47:00Z,00000200,01000000,-000.05,-000.25,0000.00,0000.65,0000.02,-000.09,0000.84,-000.29,0000.49,18.4,25.1,,00.0,0656.8,31.0
2021-09-20T08:48:00Z,00000200,01000000,0000.32,-000.07,0000.10,0000.60,0000.27,-000.23,-000.37,0000.12,-000.38,18.5,25.2,,00.0,0656.8,31.0
2021-09-20T08:49:00Z,00000200,01000000,0000.91,-000.26,0000.18,0000.71,0000.15,0000.00,-000.73,-000.71,-000.12,18.6,25.2,,00.0,0656.8,31.1
2021-09-20T08:50:00Z,00000200,01000000,0000.24,0000.08,-000.24,0000.29,0000.22,-000.04,-000.13,0000.13,-000.17,18.7,25.2,,00.0,0656.8,31.1
2021-09-20T08:51:00Z,00000200,01000000,-000.11,0000.03,-000.03,0000.06,0000.23,0000.16,-000.13,0000.03,-000.06,18.7,25.3,,00.0,0656.8,31.0
2021-09-20T08:52:00Z,00000200,01000000,0000.39,-000.08,0000.07,0000.11,0000.10,0000.20,0000.19,-000.01,-000.22,18.6,25.2,,00.0,0656.8,31.0
2021-09-20T08:53:00Z,00000200,01000000,0000.04,0000.03,-000.36,0000.42,0000.18,0000.02,0000.02,-000.23,0000.25,18.6,25.2,,00.0,0656.8,31.0
2021-09-20T08:54:00Z,00000200,01000000,0000.81,-000.07,-000.13,0000.51,0000.18,0000.09,0000.04,-000.14,-000.12,18.5,25.2,,00.0,0656.8,31.0
2021-09-20T08:55:00Z,00000200,01000000,0000.73,-000.03,0000.23,0000.26,0000.18,0000.19,0000.59,0000.88,0000.43,18.4,25.1,,00.0,0656.8,31.0
2021-09-20T08:56:00Z,00000200,01000000,0000.25,0000.00,-000.09,-000.07,-000.00,-000.04,-000.80,-000.56,-000.61,18.3,25.1,,00.0,0656.8,31.0
2021-09-20T08:57:00Z,00000200,41000000,,,,,,,-000.74,-000.62,-000.36,18.4,25.1,,00.0,0656.7,31.0
2021-09-20T08:58:00Z,00000200,61000000,,,,,,,0000.17,-000.41,0000.07,17.9,25.2,,00.0,0655.9,30.9
2021-09-20T08:59:00Z,00000200,21000000,,,,,,,0000.14,-000.08,0000.07,17.8,25.3,,00.0,0655.9,31.0
